Powrót do katalogu

STARLINK-38242

AktywnyŁącznośćSSO
NORAD 100266·PAYLOAD·🇺🇸 United States

Wystrzelony Aug 8, 2026 z Vandenberg Space Force Base

Loading…

Następne Przeloty (najbliższe 24 godziny)

TLE

ŚwieżeSource: Space-Track

Epoka: Sep 14, 2026, 14:06 UTC

1 A0266U 26181W   26257.58780513  .00182006  00000-0  11920-2 0  9993
2 A0266  97.2842 300.9532 0001329  86.7338 273.4079 15.75253317  7020

Śledź STARLINK-38242 w czasie rzeczywistym z AllMySat

Download on the App Store